Date,TemperatureHighF,TemperatureAvgF,TemperatureLowF,DewpointHighF,DewpointAvgF,DewpointLowF,HumidityHigh,HumidityAvg,HumidityLow,PressureMaxIn,PressureMinIn,WindSpeedMaxMPH,WindSpeedAvgMPH,GustSpeedMaxMPH,PrecipitationSumIn
2013-1-1,40.9,37.2,28.0,32.4,27.2,14.3,77,67,56,30.01,29.83,12,7,24,0.00
2013-1-2,33.3,28.3,22.8,20.0,16.6,13.0,70,61,54,30.17,30.00,11,6,21,0.00
2013-1-3,32.6,29.2,25.0,22.2,19.2,16.9,73,66,58,30.20,30.07,7,4,14,0.00
2013-1-4,38.0,34.6,30.1,26.3,24.6,22.1,75,67,59,30.09,29.95,13,6,28,0.00
2013-1-5,42.5,35.0,27.5,27.6,24.7,21.9,88,67,53,30.28,30.00,12,5,24,0.00
2013-1-6,40.6,35.6,30.1,35.6,31.8,26.7,95,86,75,30.24,30.05,5,2,13,0.00
2013-1-7,45.2,37.6,27.8,33.5,28.4,23.2,88,70,50,30.40,30.05,8,3,19,0.00
2013-1-8,48.0,39.0,25.8,38.7,32.6,22.7,95,79,62,30.44,30.35,8,2,21,0.00
2013-1-9,49.5,41.8,29.1,43.3,36.8,27.2,96,83,70,30.40,30.13,11,3,24,0.00
2013-1-10,47.1,41.3,32.3,37.0,29.1,26.2,80,62,48,30.55,30.22,10,5,22,0.00
2013-1-11,45.7,41.0,30.7,44.9,36.8,26.1,98,85,74,30.54,30.14,7,3,14,0.36
2013-1-12,48.3,44.4,42.5,47.8,43.9,42.0,98,98,98,30.18,30.06,8,3,16,0.08
2013-1-13,47.6,45.1,41.8,47.3,44.8,41.3,99,99,98,30.17,30.02,7,3,14,0.01
2013-1-14,56.3,49.8,38.5,55.3,46.0,35.2,99,88,69,30.29,29.94,8,4,19,0.02
2013-1-15,38.7,37.1,34.7,35.9,32.1,29.2,94,82,71,30.34,30.22,6,3,14,0.10
2013-1-16,37.5,35.4,33.4,36.7,34.6,32.1,98,97,88,30.22,29.80,8,3,19,0.75
2013-1-17,43.4,39.5,35.0,36.0,32.0,25.9,94,75,63,30.10,29.92,8,4,19,0.01
2013-1-18,34.6,27.9,23.5,26.2,15.0,9.8,73,58,45,30.50,30.02,9,5,20,0.00
2013-1-19,51.4,41.2,29.5,38.6,30.6,18.4,83,66,51,30.43,29.97,7,4,22,0.00
2013-1-20,54.5,45.0,33.7,35.9,29.2,16.4,78,56,29,30.00,29.69,18,8,38,0.00
2013-1-21,33.8,29.5,22.6,25.4,18.5,12.8,87,64,51,30.11,29.83,9,3,18,0.00
2013-1-22,28.3,21.0,14.2,20.9,6.0,-3.9,75,52,39,30.20,29.82,13,9,31,0.00
2013-1-23,20.1,15.5,11.6,2.9,0.7,-3.4,65,52,43,30.25,30.16,10,6,24,0.00
2013-1-24,24.2,17.2,9.5,8.3,4.1,2.4,79,57,40,30.39,30.14,14,6,27,0.00
2013-1-25,25.8,19.4,13.9,19.3,9.8,2.9,92,67,46,30.41,30.07,9,4,19,0.00
2013-1-26,26.4,20.3,10.6,16.6,12.5,8.0,92,73,53,30.36,30.04,10,5,22,0.05
2013-1-27,33.4,24.1,13.7,16.7,13.7,7.6,81,65,45,30.52,30.37,8,3,17,0.02
2013-1-28,35.6,30.7,19.8,34.8,27.9,14.9,97,89,72,30.49,30.01,6,2,16,0.22
2013-1-29,48.1,40.4,35.6,43.9,38.6,34.8,98,94,79,30.16,30.00,9,3,14,0.10
2013-1-30,52.7,48.9,39.6,52.4,48.5,38.8,99,99,97,30.10,29.44,13,7,31,0.01
2013-1-31,56.3,44.1,30.4,56.0,33.3,14.0,99,68,43,29.78,29.08,25,15,50,0.46
2013-2-1,30.3,29.6,28.9,17.2,16.0,13.7,59,57,50,29.86,29.78,16,9,32,0.00
2013-2-2,30.9,26.3,20.2,22.7,13.8,10.6,91,60,45,30.31,30.08,10,4,21,0.00
2013-2-3,32.0,26.9,22.1,24.9,21.9,17.5,93,82,69,30.07,29.79,7,2,12,0.05
2013-2-4,30.9,27.7,23.7,23.7,15.5,12.6,81,60,49,29.99,29.80,13,7,28,0.00
2013-2-5,31.5,30.0,28.1,29.6,26.7,20.2,93,87,72,29.98,29.91,6,2,11,0.01
2013-2-6,40.3,33.4,28.1,31.1,24.3,13.7,97,71,52,30.36,29.92,10,5,22,0.01
2013-2-7,33.9,28.5,22.1,25.5,16.5,12.5,77,61,43,30.53,30.35,7,3,14,0.00
2013-2-8,34.9,32.8,28.2,33.9,30.8,25.6,97,92,77,30.34,29.58,14,8,34,0.40
2013-2-9,29.7,27.2,25.7,27.9,26.3,25.0,97,97,91,29.98,29.70,12,7,25,0.00
2013-2-10,36.8,24.0,12.2,24.0,16.3,8.6,92,73,51,30.49,30.32,5,2,12,0.00
2013-2-11,44.2,38.1,26.0,43.7,37.3,24.2,99,97,92,30.35,29.67,7,2,18,1.23
2013-2-12,44.4,40.0,30.5,40.1,31.2,25.6,98,72,58,29.97,29.72,12,6,24,0.18
2013-2-13,43.5,34.5,23.3,35.5,27.6,21.4,96,77,55,29.96,29.70,7,2,13,0.01
2013-2-14,46.6,37.6,29.8,36.3,31.7,27.4,96,81,53,30.01,29.70,7,3,15,0.00
2013-2-15,50.0,39.8,28.5,41.0,36.0,27.5,97,87,69,30.04,29.93,7,2,12,0.00
2013-2-16,41.7,35.7,28.9,39.6,29.0,23.3,97,77,61,29.96,29.73,8,6,19,0.01
2013-2-17,32.0,26.9,18.0,23.3,11.2,4.5,79,52,39,29.97,29.63,17,12,37,0.00
2013-2-18,36.4,26.7,18.0,20.0,11.4,5.2,62,53,39,30.23,29.96,15,8,32,0.00
2013-2-19,46.8,38.7,26.0,43.8,34.1,19.6,98,84,61,30.23,29.67,12,5,31,0.20
2013-2-20,39.2,31.5,25.9,30.2,18.3,13.4,71,58,50,29.97,29.71,16,12,32,0.00
2013-2-21,34.9,28.8,24.2,19.6,16.5,13.7,72,60,50,30.28,29.97,14,9,34,0.01
2013-2-22,40.5,33.5,25.6,32.3,25.8,18.2,84,74,61,30.40,30.26,10,5,20,0.00
2013-2-23,43.5,39.8,36.4,42.7,38.1,32.4,97,93,84,30.29,29.93,11,7,22,0.27
2013-2-24,50.2,39.6,33.1,41.0,35.0,26.0,98,84,64,29.95,29.73,13,7,26,0.00
2013-2-25,47.2,38.3,28.1,32.4,28.7,24.3,88,69,52,30.24,29.95,7,4,15,0.00
2013-2-26,46.0,38.3,29.9,39.6,33.4,27.9,96,83,66,30.31,29.92,13,6,25,0.02
2013-2-27,48.8,44.7,37.1,48.3,42.8,36.1,98,93,81,29.92,29.50,19,9,42,0.99
2013-2-28,49.7,43.6,40.2,42.6,37.6,33.1,96,80,64,29.63,29.54,7,3,13,0.00
2013-3-1,45.4,40.5,34.5,34.8,32.3,29.8,90,73,58,29.77,29.60,8,5,17,0.00
2013-3-2,41.9,36.8,31.3,30.4,28.1,26.4,93,71,59,29.77,29.69,8,6,18,0.00
2013-3-3,41.8,33.0,28.2,29.0,24.5,20.8,93,72,52,29.74,29.65,9,7,20,0.01
2013-3-4,42.0,33.7,27.5,26.3,23.1,19.0,75,65,52,29.89,29.75,14,9,33,0.00
2013-3-5,49.1,38.5,30.4,33.9,28.2,22.9,80,67,49,30.02,29.89,9,5,20,0.00
2013-3-6,42.2,39.0,36.1,38.4,34.2,32.5,91,83,75,30.00,29.84,22,11,40,0.01
2013-3-7,38.0,34.8,32.9,35.6,33.0,31.2,96,93,90,30.06,29.89,15,8,32,0.05
2013-3-8,38.3,34.1,31.1,35.1,32.2,30.3,97,93,74,30.16,29.98,8,6,21,0.42
2013-3-9,55.7,42.0,32.7,34.1,29.2,26.6,86,63,35,30.32,30.15,8,4,19,0.08
2013-3-10,48.6,38.5,26.8,38.8,33.7,25.5,97,83,65,30.40,30.32,8,4,14,0.00
2013-3-11,53.9,46.2,39.0,47.3,43.0,36.3,98,89,75,30.34,30.11,9,5,19,0.00
2013-3-12,52.2,49.3,43.8,51.7,48.1,39.9,100,96,86,30.11,29.69,16,9,32,0.92
2013-3-13,51.8,42.6,31.7,40.2,33.0,26.9,97,71,41,29.89,29.78,12,5,28,0.00
2013-3-14,41.1,35.2,30.4,31.8,18.1,12.0,72,50,35,29.95,29.84,17,10,34,0.00
2013-3-15,46.2,38.0,29.4,33.4,22.8,12.6,68,54,43,29.98,29.72,12,6,25,0.00
2013-3-16,40.9,35.8,32.5,33.4,28.5,23.7,100,75,56,29.91,29.79,8,3,19,0.03
2013-3-17,38.0,33.3,27.2,31.5,23.4,16.7,94,69,47,30.31,29.91,9,4,19,0.03
2013-3-18,39.3,32.3,25.4,32.7,22.8,14.2,96,69,50,30.42,30.05,13,7,25,0.06
2013-3-19,44.3,37.2,33.8,39.5,35.5,32.8,98,94,81,30.03,29.68,10,5,23,0.92
2013-3-20,46.7,38.4,32.0,33.0,24.5,21.9,86,58,39,29.89,29.79,16,7,32,0.00
2013-3-21,38.6,33.3,30.4,30.3,26.6,19.4,92,77,57,29.85,29.65,9,4,18,0.04
2013-3-22,37.6,31.2,28.4,23.9,20.4,17.6,72,64,57,29.79,29.72,10,7,22,0.00
2013-3-23,46.6,38.7,32.3,26.7,24.2,21.5,73,56,42,29.93,29.80,14,8,32,0.00
2013-3-24,47.7,38.8,29.1,29.9,26.2,21.5,75,61,45,29.95,29.72,7,4,14,0.00
2013-3-25,40.5,37.1,33.8,36.2,32.3,29.0,96,83,68,29.73,29.46,10,4,28,0.24
2013-3-26,52.0,41.0,31.9,35.8,32.7,28.9,97,74,48,29.86,29.57,9,4,20,0.02
2013-3-27,54.5,42.6,30.4,33.4,29.8,25.3,88,62,40,29.96,29.85,10,5,23,0.00
2013-3-28,52.6,43.8,34.9,37.3,33.4,30.0,83,67,52,30.10,29.95,8,5,17,0.00
2013-3-29,53.7,47.1,39.5,36.4,32.7,30.9,73,58,44,30.14,30.04,9,6,20,0.00
2013-3-30,58.0,46.5,35.2,35.3,32.3,28.5,85,60,33,30.17,30.07,8,4,18,0.00
2013-3-31,54.5,42.4,31.6,42.8,36.0,29.5,96,79,58,30.14,30.02,10,3,22,0.00
2013-4-1,61.1,47.8,37.8,49.8,40.8,18.0,97,78,43,29.90,29.62,13,5,32,0.00
2013-4-2,44.8,38.3,31.3,21.8,18.8,16.2,59,46,34,30.08,29.91,14,8,34,0.00
2013-4-3,48.3,39.1,33.0,21.6,18.1,15.2,53,43,32,30.28,30.08,14,10,32,0.00
2013-4-4,49.7,40.0,29.1,35.5,26.5,17.7,81,59,43,30.39,30.11,10,5,29,0.00
2013-4-5,64.3,49.6,40.9,39.1,31.1,22.5,87,53,28,30.10,29.69,12,5,25,0.00
2013-4-6,53.4,42.5,34.6,31.0,22.1,15.7,72,46,26,30.33,29.98,10,6,24,0.00
2013-4-7,53.8,45.5,33.4,44.9,39.2,29.4,93,79,63,30.33,30.03,15,7,29,0.00
2013-4-8,72.7,54.4,39.9,51.9,46.1,38.6,97,76,45,30.08,29.99,9,4,15,0.00
2013-4-9,82.9,64.2,47.8,56.7,48.8,43.1,96,63,26,30.03,29.91,15,5,33,0.00
2013-4-10,73.2,59.0,52.4,57.6,51.3,46.5,97,77,55,30.00,29.82,13,4,28,0.26
2013-4-11,60.8,53.2,46.8,55.6,50.0,40.2,98,89,71,30.06,29.78,13,6,24,0.03
2013-4-12,47.1,43.8,40.4,42.2,39.9,37.8,97,86,75,30.05,29.89,18,11,32,0.43
2013-4-13,57.0,46.2,38.2,44.1,40.4,37.2,97,82,54,29.99,29.73,8,4,18,0.10
2013-4-14,58.1,50.5,44.4,46.9,38.3,31.6,97,66,40,30.23,29.97,12,5,28,0.00
2013-4-15,57.9,48.5,39.6,40.4,35.7,31.0,82,62,47,30.39,30.23,10,4,18,0.00
2013-4-16,62.2,53.5,43.5,55.3,48.8,38.4,94,84,73,30.39,30.15,13,7,25,0.00
2013-4-17,71.9,59.2,49.4,54.0,46.6,38.9,95,67,33,30.29,30.11,7,3,17,0.02
2013-4-18,59.4,53.0,44.6,54.1,46.2,41.5,96,79,57,30.37,30.12,13,7,25,0.00
2013-4-19,65.5,57.5,53.3,61.5,56.4,52.5,98,96,86,30.12,29.68,13,8,28,0.00
2013-4-20,59.3,53.8,49.2,58.2,40.8,31.6,98,65,39,30.20,29.69,13,8,28,0.26
2013-4-21,56.7,45.2,36.0,34.8,29.0,23.8,74,54,33,30.64,30.28,9,5,20,0.00
2013-4-22,55.7,46.2,35.4,39.3,35.1,31.2,89,67,45,30.66,30.50,16,7,29,0.00
2013-4-23,50.2,44.8,41.0,43.3,39.4,34.4,90,81,73,30.50,30.09,10,7,24,0.00
2013-4-24,61.8,50.4,40.8,52.0,45.7,38.9,97,85,64,30.10,29.88,12,6,22,0.00
2013-4-25,66.2,53.9,45.1,51.7,38.8,31.2,97,60,28,30.27,29.89,11,5,25,0.00
2013-4-26,67.8,53.3,38.3,43.6,39.6,36.2,95,63,35,30.40,30.27,7,2,16,0.00
2013-4-27,69.6,55.7,40.9,42.9,37.5,33.6,79,53,30,30.42,30.30,8,4,14,0.00
2013-4-28,66.3,54.9,43.5,49.9,43.1,35.9,95,67,36,30.33,30.23,9,4,17,0.00
2013-4-29,57.6,54.4,52.4,51.1,48.1,45.4,87,80,68,30.26,30.20,8,5,16,0.01
2013-4-30,65.5,57.0,47.1,50.4,41.1,31.0,84,59,29,30.35,30.22,12,5,22,0.00
2013-5-1,66.9,54.3,40.4,49.7,42.8,34.5,89,67,41,30.49,30.33,12,5,24,0.00
2013-5-2,68.4,55.8,41.4,52.2,46.0,39.5,96,72,50,30.48,30.34,7,2,14,0.00
2013-5-3,52.9,51.3,49.3,47.9,43.2,39.2,83,74,67,30.46,30.40,8,4,15,0.00
2013-5-7,71.4,59.1,47.1,62.3,54.9,45.2,95,86,73,30.18,30.10,9,3,18,0.00
2013-5-8,63.5,59.3,53.2,62.9,58.1,52.1,98,96,92,30.11,30.00,14,4,25,0.71
2013-5-9,63.9,58.0,53.0,59.8,56.5,52.2,98,95,85,30.03,29.89,7,2,15,0.30
2013-5-10,76.4,63.0,50.9,61.4,56.7,50.1,98,82,55,30.00,29.91,8,2,14,0.00
2013-5-11,65.7,60.3,58.4,63.5,59.1,56.5,98,96,89,29.91,29.71,10,4,23,1.20
2013-5-12,68.8,60.7,52.5,60.0,47.8,32.2,98,67,35,29.92,29.65,12,5,31,0.05
2013-5-13,57.2,51.2,45.3,37.1,33.8,29.8,71,52,41,30.09,29.93,9,5,26,0.00
2013-5-14,59.0,50.1,41.8,43.0,37.5,31.8,82,64,37,30.12,30.02,6,2,18,0.00
2013-5-15,62.1,55.9,44.7,56.5,50.7,41.4,92,83,58,30.08,29.70,11,4,22,0.01
2013-5-16,74.5,63.8,54.3,58.9,54.3,47.3,97,74,47,29.82,29.70,7,2,15,0.00
2013-5-17,69.3,62.2,53.7,53.7,47.3,44.5,91,59,44,30.19,29.82,6,2,19,0.00
2013-5-18,65.5,58.8,51.9,55.7,52.3,47.2,93,80,62,30.32,30.20,6,2,15,0.01
2013-5-19,57.8,56.6,55.6,57.2,55.1,50.1,98,95,77,30.34,30.19,10,5,20,0.49
2013-5-20,74.0,64.3,57.3,68.4,62.3,56.7,99,94,81,30.18,29.97,6,2,14,0.01
2013-5-21,79.1,69.1,60.3,72.6,65.8,59.7,99,90,78,29.99,29.86,7,2,17,0.00
2013-5-22,74.9,65.8,58.5,70.2,63.9,57.7,98,94,85,29.94,29.86,7,3,15,0.00
2013-5-23,72.6,65.8,62.7,68.7,64.3,62.1,98,95,86,29.92,29.78,12,6,30,0.07
2013-5-24,65.3,57.4,47.3,64.8,56.3,45.5,99,96,89,29.91,29.69,7,3,25,0.26
2013-5-25,53.1,48.1,43.6,48.2,44.4,41.7,97,88,69,29.98,29.87,10,5,33,0.59
2013-5-26,65.1,55.4,47.4,45.4,43.0,40.3,85,65,45,30.20,29.94,10,5,30,0.00
2013-5-27,69.2,58.2,44.7,51.4,45.5,40.4,90,66,37,30.25,30.13,7,3,19,0.00
2013-5-28,68.9,57.7,50.5,57.4,53.3,48.4,98,87,54,30.24,30.15,7,2,13,0.47
2013-5-29,75.6,65.1,56.3,69.7,62.3,55.7,98,91,79,30.14,30.01,7,2,14,0.00
2013-5-30,87.5,75.0,62.9,72.7,66.8,61.3,97,77,55,30.13,30.07,8,2,16,0.00
2013-5-31,87.3,74.9,64.5,75.3,67.5,62.6,96,79,60,30.12,30.00,7,2,15,0.00
2013-6-1,81.5,72.9,64.9,72.0,67.2,62.6,95,83,71,30.03,29.92,9,3,20,0.00
2013-6-2,76.7,69.6,64.0,69.8,65.5,62.5,96,87,76,29.94,29.80,9,4,19,0.00
2013-6-3,71.6,68.0,64.4,70.4,66.5,56.2,98,95,65,29.86,29.81,7,2,18,0.59
2013-6-4,72.1,64.5,56.1,56.6,51.2,47.0,80,63,44,30.10,29.86,6,3,16,0.00
2013-6-5,70.9,63.5,54.5,56.3,50.5,46.7,90,64,44,30.21,30.10,9,4,17,0.00
2013-6-6,69.8,63.7,57.6,61.3,58.1,52.0,96,83,55,30.16,30.03,11,5,22,0.00
2013-6-7,62.4,61.3,60.2,61.8,60.3,58.6,98,97,88,30.03,29.75,10,6,22,2.27
2013-6-8,74.8,66.1,55.7,67.6,62.4,55.4,99,89,76,30.04,29.55,7,3,21,0.15
2013-6-9,77.2,68.8,58.8,64.4,61.6,58.0,98,79,61,30.18,30.05,7,2,15,0.00
2013-6-10,70.6,64.9,62.1,66.8,63.4,61.5,98,95,83,30.17,29.85,12,4,26,1.18
2013-6-11,78.8,71.1,65.2,70.1,66.7,61.9,99,87,69,29.85,29.60,11,4,29,0.50
2013-6-12,73.5,68.7,62.5,61.8,57.8,55.2,84,69,57,29.85,29.70,7,4,23,0.00
2013-6-13,65.5,62.0,58.4,61.4,59.3,56.6,98,91,77,29.84,29.46,15,6,30,0.75
2013-6-14,69.5,59.0,52.6,59.7,55.6,52.1,98,89,68,29.86,29.50,10,4,30,0.33
2013-6-15,77.3,67.7,57.2,61.1,58.1,53.9,96,74,47,30.00,29.87,4,1,18,0.00
2013-6-16,79.3,70.2,59.2,68.9,62.6,57.6,96,78,54,29.99,29.77,10,3,26,0.00
2013-6-17,82.3,73.8,67.1,70.7,67.4,63.8,95,81,65,29.92,29.84,8,2,19,0.00
2013-6-18,79.5,69.9,64.5,70.9,66.8,62.8,98,90,70,29.90,29.82,7,2,13,0.24
2013-6-19,73.7,66.1,58.4,63.6,57.0,50.9,97,75,48,30.17,29.87,7,3,20,0.00
2013-6-20,74.3,63.3,56.8,60.9,56.3,54.2,94,80,54,30.27,30.17,5,1,18,0.00
2013-6-21,77.3,68.8,59.8,62.8,59.1,56.5,91,72,56,30.31,30.26,6,2,14,0.00
2013-6-22,79.1,69.5,60.1,67.1,60.9,56.9,93,75,56,30.27,30.16,8,3,16,0.00
2013-6-23,81.8,73.6,64.4,73.4,67.8,59.8,97,82,71,30.20,30.08,9,3,20,0.03
2013-6-24,88.4,77.0,71.1,78.1,71.7,67.0,98,85,64,30.09,29.95,6,2,29,0.44
2013-6-25,88.0,79.4,70.0,75.7,70.7,66.6,92,76,61,30.00,29.79,8,3,22,0.00
2013-6-26,84.1,78.4,73.4,71.9,70.3,68.0,92,77,61,29.84,29.76,6,3,19,0.00
2013-6-27,82.5,75.5,71.8,75.2,72.0,69.7,97,89,76,29.84,29.60,12,4,30,0.00
2013-6-28,81.7,75.5,71.1,74.0,72.0,69.8,96,89,76,29.60,29.50,9,4,18,0.00
2013-6-29,79.2,73.9,68.8,72.9,70.4,67.3,95,89,76,29.72,29.50,9,3,22,0.01
2013-6-30,79.6,73.1,68.9,75.6,71.6,67.7,98,95,86,29.93,29.72,8,4,20,0.01
2013-7-1,77.2,72.5,71.1,74.8,72.0,70.8,99,98,91,30.08,29.92,10,4,20,0.95
2013-7-2,78.1,73.0,70.9,75.6,72.0,70.3,99,97,89,30.20,30.07,9,3,19,0.40
2013-7-3,81.5,74.3,69.0,76.4,72.4,68.7,99,94,83,30.26,30.19,8,3,15,0.04
2013-7-4,84.6,77.5,72.1,77.8,74.3,71.2,99,90,79,30.27,30.17,8,2,17,0.00
2013-7-5,86.7,79.4,72.5,78.3,74.6,71.6,97,86,74,30.23,30.10,8,3,15,0.00
2013-7-6,90.4,82.9,74.9,77.8,75.2,72.9,94,79,62,30.15,30.02,5,2,16,0.00
2013-7-7,86.9,83.1,78.6,77.4,75.6,73.5,88,78,68,30.06,29.93,7,2,13,0.00
2013-7-8,85.8,79.8,73.7,74.5,71.2,67.7,87,76,65,30.04,29.97,8,3,21,0.00
2013-7-9,85.3,78.8,72.1,76.1,72.1,68.5,91,80,66,30.08,30.00,7,2,16,0.00
2013-7-10,85.2,77.9,73.5,77.6,74.0,70.7,93,88,77,30.02,29.81,8,2,19,0.12
2013-7-11,81.1,77.1,74.4,74.9,72.4,68.7,96,86,73,29.92,29.82,4,1,11,0.00
2013-7-12,74.9,72.4,67.9,71.2,68.3,65.5,99,87,80,30.10,29.92,8,4,20,0.35
2013-7-13,80.3,73.9,68.0,77.1,73.0,67.7,99,97,89,30.29,30.10,6,3,16,0.36
2013-7-14,87.1,79.4,72.3,77.6,74.9,71.7,99,87,71,30.33,30.24,6,2,15,0.00
2013-7-15,90.1,83.0,77.0,78.1,75.2,72.8,91,78,63,30.25,30.13,5,2,15,0.00
2013-7-16,89.2,82.1,75.4,74.3,71.2,69.2,91,71,53,30.19,30.12,6,2,17,0.00
2013-7-17,91.3,82.6,75.5,74.9,72.3,69.9,86,72,51,30.19,30.08,7,2,14,0.00
2013-7-18,94.2,85.1,77.2,78.5,75.7,72.3,90,75,50,30.07,29.95,4,1,14,0.00
2013-7-19,93.4,86.0,81.0,82.3,78.9,76.9,89,80,68,29.97,29.80,7,2,17,0.00
2013-7-20,90.9,84.7,80.1,77.4,74.8,71.1,88,73,58,29.83,29.72,8,3,26,0.00
2013-7-21,85.8,79.5,74.7,73.1,70.3,65.4,90,74,57,29.97,29.83,7,3,12,0.00
2013-7-22,83.9,77.4,74.0,76.5,73.9,71.5,96,89,76,29.97,29.82,9,3,16,0.07
2013-7-23,84.8,77.3,73.5,77.3,74.3,72.1,99,91,75,29.81,29.56,8,3,16,0.58
2013-7-24,80.8,75.6,69.8,72.8,69.2,60.0,98,81,66,29.92,29.61,6,2,17,0.00
2013-7-25,69.6,64.1,62.5,61.3,58.6,55.0,95,82,71,30.05,29.92,8,6,22,0.06
2013-7-26,68.2,63.9,61.9,64.8,61.7,60.7,96,93,88,30.03,29.98,6,3,15,0.01
2013-7-27,80.3,72.9,64.8,69.6,67.0,63.0,96,83,60,30.07,29.98,8,3,15,0.00
2013-7-28,77.2,72.3,66.0,72.5,69.0,65.1,98,90,71,30.01,29.95,8,3,16,0.01
2013-7-29,84.5,76.3,69.1,75.9,68.4,55.8,100,78,47,30.09,29.96,7,2,19,0.03
2013-7-30,79.6,72.3,62.0,62.7,60.5,58.1,92,68,53,30.16,30.09,4,1,14,0.00
2013-7-31,80.1,71.9,62.7,66.1,62.7,59.2,92,74,54,30.16,30.06,5,2,13,0.00
2013-8-1,75.2,70.8,66.1,69.8,67.6,65.0,97,90,77,30.06,29.89,8,3,14,0.35
2013-8-2,83.1,74.2,67.2,69.9,67.2,63.2,99,80,56,29.92,29.79,6,2,18,0.04
2013-8-3,77.6,72.4,68.8,69.4,66.3,63.7,91,81,73,29.92,29.84,6,2,15,0.01
2013-8-4,79.1,71.6,63.7,66.2,61.2,56.0,94,71,51,29.94,29.84,7,2,21,0.00
2013-8-5,76.3,67.9,58.4,61.1,55.3,50.5,87,66,44,30.06,29.95,5,2,19,0.00
2013-8-6,78.4,69.7,60.2,64.4,60.9,58.6,96,75,53,30.14,30.04,9,2,19,0.00
2013-8-7,77.6,71.7,66.1,69.0,65.1,61.4,90,80,66,30.16,30.09,10,5,18,0.00
2013-8-8,78.8,72.6,67.3,74.9,71.1,66.7,99,95,86,30.09,30.02,8,5,17,0.66
2013-8-9,81.3,75.9,72.6,77.0,74.2,71.7,99,94,86,30.04,29.81,9,5,19,0.01
2013-8-10,82.2,75.5,68.8,74.1,66.3,61.7,95,74,56,30.04,29.85,5,2,16,0.00
2013-8-11,81.1,71.0,60.3,65.4,60.0,56.4,93,70,49,30.13,30.04,5,2,18,0.00
2013-8-12,76.7,72.5,70.0,71.7,70.0,65.8,98,92,83,30.05,29.94,4,1,8,0.27
2013-8-13,72.9,70.1,67.1,72.6,69.4,66.8,99,97,91,29.94,29.71,5,1,12,0.79
2013-8-14,72.8,66.8,59.0,67.8,57.2,51.5,99,72,55,30.04,29.74,7,2,26,0.00
2013-8-15,76.3,66.8,55.0,60.7,55.7,51.8,95,70,45,30.15,30.05,5,1,15,0.00
2013-8-16,77.4,68.9,58.0,62.0,58.5,56.3,95,72,49,30.21,30.13,6,2,15,0.00
2013-8-17,79.2,69.2,59.0,63.8,60.6,57.3,95,76,53,30.28,30.21,5,1,12,0.00
2013-8-18,74.8,68.8,63.9,64.8,62.1,59.3,93,80,61,30.27,30.13,5,1,11,0.00
2013-8-19,77.3,70.6,63.3,65.6,62.7,59.4,90,77,64,30.14,30.03,4,2,16,0.00
2013-8-20,84.5,74.3,63.9,70.1,67.0,62.7,97,79,55,30.13,30.05,5,1,13,0.00
2013-8-21,86.9,76.3,66.7,72.1,67.9,63.8,97,78,47,30.18,30.07,6,1,15,0.00
2013-8-22,81.6,74.2,70.9,74.2,71.5,69.0,96,91,77,30.08,29.88,5,2,13,0.05
2013-8-23,79.1,73.3,66.8,70.5,63.8,59.0,98,74,54,30.09,29.87,7,3,17,0.00
2013-8-24,77.7,69.1,62.2,63.2,59.3,55.3,88,72,52,30.35,30.11,6,3,16,0.00
2013-8-25,81.7,69.6,57.8,62.6,58.7,55.8,97,71,45,30.40,30.25,5,2,15,0.00
2013-8-26,82.8,74.0,68.0,69.8,64.2,58.2,89,72,61,30.25,29.93,8,3,21,0.03
2013-8-27,83.8,75.7,70.5,72.8,70.1,68.7,96,84,65,29.92,29.82,8,2,21,0.06
2013-8-28,85.3,75.7,68.0,72.4,70.4,66.8,98,85,64,29.91,29.84,8,2,14,0.00
2013-8-29,78.8,72.6,69.0,71.4,67.9,64.6,96,86,68,30.04,29.89,7,3,17,0.00
2013-8-30,82.6,73.3,67.2,73.0,68.6,63.5,93,85,71,30.04,29.87,7,3,20,0.00
2013-8-31,83.0,75.4,71.1,75.4,71.9,69.3,95,89,78,29.89,29.81,7,2,18,0.00
2013-9-1,83.0,76.0,72.4,75.9,73.5,71.5,97,92,76,29.88,29.82,7,3,14,0.00
2013-9-2,78.1,75.0,71.7,76.2,73.8,70.8,99,96,90,29.83,29.73,5,1,11,0.00
2013-9-3,80.7,73.8,68.6,73.5,67.9,60.0,99,83,58,29.89,29.72,5,2,16,0.22
2013-9-4,82.7,71.7,62.8,62.8,60.2,56.2,88,69,47,30.00,29.88,5,2,18,0.00
2013-9-5,77.0,70.1,62.3,63.5,57.7,48.0,86,66,42,30.14,29.93,6,3,18,0.00
2013-9-6,72.2,63.0,55.0,52.0,49.5,47.1,79,62,45,30.26,30.15,6,2,14,0.00
2013-9-7,76.2,64.9,52.3,61.5,54.3,49.2,92,71,43,30.14,29.91,6,1,16,0.00
2013-9-8,81.0,71.9,64.9,66.9,60.5,50.8,88,68,49,30.04,29.81,7,2,18,0.00
2013-9-9,71.1,63.8,52.6,61.7,52.7,47.7,84,68,48,30.25,30.08,7,3,14,0.00
2013-9-10,79.1,72.6,67.1,73.1,68.5,61.8,93,87,81,30.18,30.06,9,3,16,0.00
2013-9-11,89.8,79.2,71.6,78.3,73.6,70.4,97,84,66,30.13,30.00,8,2,19,0.01
2013-9-12,82.4,74.6,68.7,75.2,71.7,68.1,98,91,78,30.01,29.70,8,3,18,0.17
2013-9-13,76.0,68.9,62.0,68.2,64.1,55.0,99,86,63,29.83,29.64,8,2,25,0.09
2013-9-14,66.5,60.2,54.0,53.8,51.5,49.4,88,73,61,30.12,29.84,5,2,19,0.00
2013-9-15,71.6,60.3,47.9,58.0,51.1,46.0,95,74,41,30.22,30.10,5,1,12,0.00
2013-9-16,71.0,63.5,58.8,60.2,56.7,48.6,94,79,56,30.23,30.05,6,2,16,0.02
2013-9-17,65.4,56.4,48.4,48.7,43.3,39.7,79,62,46,30.43,30.23,9,4,26,0.00
2013-9-18,71.5,58.4,45.8,53.7,48.3,43.4,94,71,46,30.36,30.20,6,1,14,0.00
2013-9-19,75.8,63.1,49.4,58.2,53.3,47.5,96,73,43,30.21,30.08,5,2,15,0.00
2013-9-20,70.6,57.4,52.3,61.5,54.3,50.0,96,90,71,30.10,30.08,3,0,8,0.00
2013-9-21,75.2,66.2,55.4,68.7,63.4,53.7,98,91,79,30.04,29.70,12,5,25,0.01
2013-9-22,69.8,63.7,57.5,68.3,56.4,47.8,99,79,56,29.89,29.67,8,3,20,0.74
2013-9-23,66.7,56.4,49.1,49.5,46.4,42.8,87,70,53,30.06,29.91,6,2,19,0.00
2013-9-24,72.9,57.5,45.2,51.8,47.2,42.2,91,70,45,30.06,29.88,5,2,16,0.00
2013-9-25,71.3,60.2,48.5,53.1,50.3,46.3,93,71,49,29.97,29.88,3,1,12,0.00
2013-9-26,67.7,60.1,52.0,60.3,55.8,50.3,97,86,72,30.11,29.94,6,2,13,0.00
2013-9-27,65.2,59.7,51.5,58.4,54.1,50.3,97,83,68,30.27,30.11,5,2,11,0.00
2013-9-28,74.2,63.9,53.7,59.3,55.8,52.3,96,76,59,30.33,30.25,5,2,14,0.00
2013-9-29,75.7,61.7,52.4,58.6,54.3,48.1,96,79,43,30.25,30.09,5,2,13,0.00
2013-9-30,53.7,51.9,50.8,52.8,50.4,49.1,98,95,92,30.09,30.07,1,0,5,0.00
2013-10-1,81.5,66.4,51.9,61.0,57.2,50.5,96,75,48,30.01,29.90,3,1,12,0.00
2013-10-2,85.3,68.9,56.3,66.2,60.7,54.9,96,77,52,30.01,29.91,6,1,21,0.00
2013-10-3,76.9,67.8,56.9,60.7,57.3,52.3,96,71,48,30.13,30.02,4,1,11,0.00
2013-10-4,82.0,70.3,60.5,69.5,64.1,57.7,95,82,63,30.08,29.98,7,1,15,0.00
2013-10-5,78.1,67.8,63.5,68.3,64.6,62.3,96,90,71,30.10,30.02,5,3,13,0.01
2013-10-6,67.6,65.3,64.0,67.0,64.6,63.2,99,98,95,30.12,30.06,7,5,19,0.01
2013-10-7,74.5,68.3,60.8,70.7,66.2,55.7,99,93,81,30.06,29.82,14,6,30,0.12
2013-10-8,65.9,59.5,53.8,55.0,48.7,45.1,86,69,50,30.33,29.99,8,3,21,0.00
2013-10-9,63.7,57.6,51.4,52.6,49.7,44.4,83,75,64,30.40,30.30,6,3,20,0.00
2013-10-10,64.0,58.6,54.7,59.1,54.8,49.6,94,87,83,30.30,30.09,8,5,20,0.02
2013-10-11,66.9,62.2,58.8,61.2,58.6,56.2,93,88,81,30.08,30.01,7,5,20,0.00
2013-10-12,73.9,64.0,59.6,57.4,51.9,42.7,83,66,34,30.29,30.08,8,5,23,0.00
2013-10-13,68.4,59.6,53.1,55.2,52.6,49.0,88,78,61,30.39,30.28,7,4,22,0.00
2013-10-14,66.4,55.8,46.4,53.8,49.8,44.4,94,81,64,30.38,30.27,6,2,11,0.00
2013-10-15,71.8,58.4,48.1,58.6,50.4,45.8,97,78,41,30.28,30.13,7,2,14,0.00
2013-10-16,66.0,60.2,51.9,60.9,57.1,49.4,95,90,81,30.13,29.94,4,1,9,0.00
2013-10-17,73.3,64.3,60.7,65.0,61.7,59.5,98,92,75,29.93,29.72,7,2,16,0.02
2013-10-18,64.1,61.1,57.5,63.2,56.1,49.0,98,84,72,29.85,29.69,8,5,22,0.02
2013-10-19,64.5,55.6,44.9,57.8,48.9,41.9,92,79,57,30.01,29.76,7,2,15,0.02
2013-10-20,65.5,55.4,47.2,57.9,44.5,39.8,94,68,39,30.07,29.75,7,3,21,0.00
2013-10-21,66.9,54.4,40.7,50.2,43.3,38.1,92,69,41,30.17,30.00,6,2,16,0.00
2013-10-22,68.2,58.6,48.4,55.0,49.2,44.2,94,72,55,30.00,29.76,8,2,20,0.00
2013-10-23,53.8,49.0,42.9,46.0,40.6,38.1,92,73,58,29.83,29.62,6,2,16,0.00
2013-10-24,53.6,47.3,40.8,38.3,34.1,29.7,82,62,43,30.01,29.75,9,4,28,0.00
2013-10-25,50.5,43.5,39.9,35.8,33.6,31.1,76,68,56,30.13,30.01,5,3,16,0.00
2013-10-26,57.3,46.4,32.6,38.9,34.7,29.7,93,66,44,30.23,29.92,8,3,26,0.00
2013-10-27,59.1,50.3,40.1,38.9,36.6,34.2,81,60,44,30.13,29.87,7,2,22,0.00
2013-10-28,62.7,47.6,34.6,39.3,36.0,31.3,91,67,42,30.32,30.13,8,2,23,0.00
2013-10-29,55.7,47.5,40.9,40.0,37.0,34.3,82,68,49,30.42,30.32,5,2,14,0.00
2013-10-30,59.8,51.4,42.3,53.8,46.1,36.9,95,82,70,30.36,30.20,4,1,11,0.00
2013-10-31,65.4,58.0,48.8,61.5,55.8,46.3,97,92,86,30.25,29.86,9,4,20,0.00
2013-11-1,66.6,62.3,57.0,62.6,59.8,55.7,98,92,75,29.84,29.57,12,5,27,0.05
2013-11-2,67.8,58.5,50.2,56.5,50.0,42.9,98,75,54,29.78,29.63,5,1,10,0.00
2013-11-3,54.1,45.7,37.5,44.7,36.2,24.6,92,70,56,30.44,29.77,9,4,22,0.00
2013-11-4,48.1,39.0,34.1,27.3,24.8,21.2,70,57,43,30.67,30.44,8,4,21,0.00
2013-11-5,55.8,45.8,35.7,42.2,37.7,27.2,87,74,58,30.67,30.51,7,2,15,0.00
2013-11-6,61.7,52.4,39.0,57.2,47.4,37.1,96,84,57,30.51,30.09,8,3,16,0.00
2013-11-7,62.7,54.9,41.5,60.8,52.0,33.7,100,90,68,30.08,29.75,7,3,19,0.16
2013-11-8,50.1,43.9,38.8,34.7,31.4,27.7,80,62,47,30.19,29.93,9,5,28,0.00
2013-11-9,48.7,43.8,36.0,38.0,31.3,28.6,78,62,47,30.30,30.07,6,3,14,0.00
2013-11-10,60.9,49.9,43.6,41.8,37.4,32.9,77,63,42,30.04,29.81,14,6,35,0.00
2013-11-11,52.6,48.3,42.2,37.1,32.9,28.9,61,55,46,30.21,29.98,10,4,29,0.00
2013-11-12,50.8,38.1,30.9,39.8,29.7,20.0,96,73,58,30.28,29.93,10,5,22,0.13
2013-11-13,38.4,32.6,27.8,22.6,19.6,16.9,74,59,42,30.36,30.27,8,4,19,0.00
2013-11-14,51.9,42.2,32.3,28.5,24.5,22.6,69,51,34,30.29,30.16,10,4,28,0.00
2013-11-15,54.9,42.0,32.7,39.7,32.3,27.1,88,69,55,30.27,30.21,5,1,11,0.00
2013-11-16,60.1,46.4,36.3,50.0,42.9,33.5,100,88,67,30.34,30.24,5,1,11,0.05
2013-11-17,61.1,54.6,41.0,60.2,54.0,40.2,99,98,95,30.29,29.83,7,3,15,0.03
2013-11-18,65.8,59.4,51.1,59.0,45.9,31.3,99,65,40,29.81,29.62,13,6,31,0.19
2013-11-19,50.5,43.4,33.6,34.0,29.3,24.8,70,58,51,30.34,29.78,13,8,32,0.00
2013-11-20,44.3,33.9,26.2,24.7,21.5,18.2,84,62,38,30.62,30.34,9,3,27,0.00
2013-11-21,53.0,41.1,25.0,44.8,34.5,21.9,92,78,55,30.63,30.40,8,2,15,0.00
2013-11-22,55.4,52.2,48.2,51.9,49.1,43.8,98,89,83,30.40,29.92,5,2,14,0.06
2013-11-23,53.6,42.7,31.9,50.7,29.6,15.4,92,61,42,30.03,29.90,15,8,33,0.00
2013-11-24,30.9,25.9,23.0,12.0,7.1,-99.9,55,47,34,30.37,29.98,16,11,39,0.00
2013-11-25,34.9,29.3,22.0,20.4,15.8,9.6,68,57,44,30.49,30.36,10,4,22,0.00
2013-11-26,50.4,38.3,33.7,49.9,29.7,20.1,98,73,52,30.36,29.87,11,3,22,0.35
2013-11-27,60.5,48.8,35.6,60.2,47.6,27.5,99,96,72,29.81,29.32,19,9,36,1.58
2013-11-28,34.6,31.3,25.2,25.4,18.5,15.0,72,59,47,30.48,29.72,13,7,31,0.00
2013-11-29,39.5,31.8,26.1,24.7,22.0,19.1,79,67,53,30.74,30.48,8,2,15,0.00
2013-11-30,38.8,31.4,21.8,30.1,23.6,17.4,86,73,52,30.77,30.43,8,3,14,0.00
2013-12-1,51.3,43.2,36.5,42.9,37.5,31.8,92,81,65,30.38,30.02,4,1,10,0.00
2013-12-2,53.2,41.5,34.2,43.9,38.1,33.1,96,88,67,30.02,29.89,6,1,8,0.00
2013-12-3,52.1,40.7,32.7,40.2,36.4,31.4,98,86,60,30.01,29.87,5,1,9,0.00
2013-12-4,52.3,42.0,31.1,46.9,38.6,30.1,98,88,66,30.15,30.01,4,2,9,0.00
2013-12-5,55.9,53.1,47.9,55.3,52.6,46.8,99,98,96,30.15,29.96,6,3,12,0.05
2013-12-6,55.1,46.7,36.2,54.8,46.1,35.2,99,98,94,30.15,29.89,9,4,23,0.46
2013-12-7,40.1,36.0,30.6,36.0,31.3,22.5,98,84,65,30.51,30.09,9,4,19,0.17
2013-12-8,33.2,30.0,24.3,29.5,24.1,19.9,94,79,66,30.60,30.39,7,3,14,0.00
2013-12-9,41.1,37.2,31.5,40.6,36.5,30.5,98,97,95,30.38,29.95,8,5,20,0.03
2013-12-10,36.1,33.2,29.6,34.8,30.7,20.0,97,91,67,30.13,29.83,10,4,26,0.10
2013-12-11,33.1,29.9,26.4,21.6,19.6,17.2,70,65,59,30.34,30.13,12,7,24,0.06
2013-12-12,29.3,25.3,21.7,19.8,12.5,9.5,73,58,49,30.36,30.18,10,6,23,0.01
2013-12-13,34.5,28.5,23.3,22.5,16.7,9.6,83,61,53,30.34,30.13,15,6,30,0.02
2013-12-14,40.0,27.3,23.4,39.5,24.3,20.1,98,89,76,30.51,29.83,13,5,30,0.00
2013-12-15,43.4,36.3,31.0,42.9,32.7,23.8,98,87,68,29.85,29.46,15,7,31,0.77
2013-12-16,33.2,28.1,19.6,25.1,16.4,12.6,77,62,49,30.23,29.85,11,6,28,0.00
2013-12-17,33.3,26.8,17.8,32.3,23.8,13.6,97,89,65,30.25,29.92,8,4,18,0.04
2013-12-18,36.5,29.6,23.2,27.3,23.6,20.7,92,79,65,30.18,29.91,9,4,19,0.04
2013-12-19,43.8,36.6,24.7,33.3,28.5,21.4,92,73,59,30.19,30.04,8,2,18,0.02
2013-12-20,51.1,41.6,31.7,43.1,36.1,29.4,97,82,60,30.13,29.99,4,1,9,0.00
2013-12-21,58.0,49.2,38.9,51.3,46.9,38.4,98,92,78,30.02,29.92,7,2,14,0.00
2013-12-22,62.5,56.7,51.3,58.6,55.1,50.2,100,94,87,29.98,29.85,11,5,23,0.00
2013-12-23,56.2,52.0,41.3,55.9,51.4,40.0,99,98,94,30.14,29.87,9,2,19,0.55
2013-12-24,41.3,35.8,27.3,40.0,28.8,14.5,95,76,58,30.33,30.08,12,5,23,0.00
2013-12-25,28.2,24.8,19.1,18.1,13.3,10.7,71,61,53,30.53,30.33,12,4,33,0.00
2013-12-26,36.8,31.6,25.4,29.0,25.4,18.1,88,78,61,30.45,30.16,11,3,26,0.00
2013-12-27,40.4,33.9,26.8,26.6,24.3,21.9,87,68,52,30.37,30.27,10,4,21,0.00
2013-12-28,53.4,42.2,26.8,34.8,30.7,23.3,95,66,47,30.30,30.07,10,3,25,0.00
2013-12-29,50.5,42.5,38.8,50.0,38.9,30.6,98,88,67,30.09,29.37,14,4,26,1.06
2013-12-30,45.2,35.7,24.1,41.2,29.5,14.5,98,79,60,30.20,29.68,10,5,25,0.00
2013-12-31,32.6,26.5,20.2,24.8,17.2,13.2,78,68,57,30.28,30.07,11,4,28,0.01
2014-1-1,33.1,28.3,20.9,23.5,17.8,11.7,75,64,57,30.42,30.27,8,3,19,0.00
2014-1-2,31.7,26.8,18.4,27.2,24.0,16.9,95,89,72,30.27,29.66,12,8,29,0.00